TimeMDT,TemperatureF,Dew PointF,Humidity,Sea Level PressureIn,VisibilityMPH,Wind Direction,Wind SpeedMPH,Gust SpeedMPH,PrecipitationIn,Events,Conditions,WindDirDegrees,DateUTC
12:52 AM,37.9,32.0,79,30.35,-9999.0,Calm,Calm,-,N/A,,Unknown,0,2012-10-04 06:52:00
1:00 AM,-9999,-9999,N/A,-9999,-9999.0,North,-9999.0,-,N/A,,Unknown,0,2012-10-04 07:00:00
1:52 AM,37.0,32.0,82,30.35,-9999.0,NNW,3.5,-,N/A,,Unknown,340,2012-10-04 07:52:00
2:52 AM,35.1,30.9,85,30.35,-9999.0,Calm,Calm,-,N/A,,Unknown,0,2012-10-04 08:52:00
3:52 AM,35.1,30.9,85,30.32,-9999.0,Calm,Calm,-,N/A,,Unknown,0,2012-10-04 09:52:00
4:52 AM,34.0,30.0,85,30.34,-9999.0,Calm,Calm,-,N/A,,Unknown,0,2012-10-04 10:52:00
5:52 AM,33.1,28.9,85,30.35,-9999.0,Calm,Calm,-,N/A,,Unknown,0,2012-10-04 11:52:00
6:52 AM,30.9,28.0,89,30.37,-9999.0,Calm,Calm,-,N/A,,Unknown,0,2012-10-04 12:52:00
7:52 AM,32.0,28.9,88,30.38,-9999.0,Calm,Calm,-,N/A,,Unknown,0,2012-10-04 13:52:00
8:52 AM,32.0,28.9,88,30.39,-9999.0,NNW,3.5,-,N/A,,Unknown,330,2012-10-04 14:52:00
9:52 AM,35.1,30.0,82,30.39,-9999.0,North,3.5,-,N/A,,Unknown,350,2012-10-04 15:52:00
10:52 AM,41.0,30.9,67,30.36,-9999.0,Calm,Calm,-,N/A,,Unknown,0,2012-10-04 16:52:00
11:52 AM,45.0,30.9,58,30.34,-9999.0,Calm,Calm,-,N/A,,Unknown,0,2012-10-04 17:52:00
12:52 PM,51.1,28.0,41,30.30,-9999.0,Calm,Calm,-,N/A,,Unknown,0,2012-10-04 18:52:00
1:52 PM,57.9,28.0,32,30.27,-9999.0,South,3.5,-,N/A,,Unknown,180,2012-10-04 19:52:00
2:52 PM,60.1,28.0,30,30.24,-9999.0,Variable,4.6,-,N/A,,Unknown,0,2012-10-04 20:52:00
3:52 PM,62.1,28.0,28,30.22,-9999.0,Variable,4.6,-,N/A,,Unknown,0,2012-10-04 21:52:00
4:52 PM,61.0,27.0,27,30.22,-9999.0,ESE,4.6,-,N/A,,Unknown,120,2012-10-04 22:52:00
5:52 PM,55.9,33.1,42,30.24,-9999.0,Calm,Calm,-,N/A,,Unknown,0,2012-10-04 23:52:00
6:52 PM,50.0,36.0,59,30.26,-9999.0,Calm,Calm,-,N/A,,Unknown,0,2012-10-05 00:52:00
7:52 PM,46.0,35.1,66,30.30,-9999.0,Calm,Calm,-,N/A,,Unknown,0,2012-10-05 01:52:00
8:52 PM,43.0,33.1,68,30.32,-9999.0,Calm,Calm,-,N/A,,Unknown,0,2012-10-05 02:52:00
9:52 PM,41.0,32.0,70,30.33,-9999.0,Calm,Calm,-,N/A,,Unknown,0,2012-10-05 03:52:00
10:52 PM,39.0,32.0,76,30.35,-9999.0,Calm,Calm,-,N/A,,Unknown,0,2012-10-05 04:52:00
11:52 PM,37.9,32.0,79,30.36,-9999.0,North,3.5,-,N/A,,Unknown,350,2012-10-05 05:52:00